Dewpoint
19 16 16 26 28 18 18 18 15 16 18 20 20 25 26 30 22 21 31 35 31 29 28 31 38 43 45 47 48 50 51 53 54 54 54 55 54 55 56 57 58 59 60 62 64 65 66 67 68 69 69 69 70 70 69 70 69 69 69 68 67 66 65 65 65 65 63 63 65 64 64 64 64 64 64 63 63 63 64 64 63 63 63 63 63 64 64
17 18 16 24 22 21 20 18 18 17 16 18 18 20 26 25 30 28 31 35 30 27 28 31 36 42 44 46 50 51 51 51 53 53 53 53 54 54 55 57 57 59 59 61 63 64 66 67 68 68 69 69 69 69 69 69 69 69 69 68 68 67 65 65 66 65 65 65 65 64 63 63 64 64 63 63 63 63 64 64 64 64 64 64 64 63 63
17 16 18 18 21 19 17 19 18 17 16 17 18 19 26 32 26 25 30 34 33 32 33 32 41 47 48 47 47 47 49 51 52 52 53 53 54 54 55 57 57 58 60 61 62 63 65 66 67 68 69 69 69 69 69 69 69 69 68 68 68 67 66 66 66 65 65 65 65 64 63 64 64 64 64 64 64 64 64 64 64 65 64 64 63 63 63
19 17 17 17 18 18 17 15 16 18 18 20 19 24 28 32 31 33 35 33 31 32 39 45 45 45 45 45 46 47 48 50 52 52 52 53 54 55 55 56 57 58 59 60 61 62 63 65 67 67 68 69 69 69 69 69 68 68 68 67 67 67 67 67 66 65 65 64 64 64 64 64 64 64 65 65 64 64 64 63 64 64 64 63 63 63 62
22 19 16 15 17 21 19 18 16 17 19 20 23 34 40 32 30 34 28 27 30 31 43 38 41 42 43 43 45 46 48 50 51 51 52 52 54 55 56 57 58 58 58 59 61 62 63 64 66 67 68 68 68 69 69 69 69 68 67 67 67 67 67 67 66 65 65 64 64 64 64 65 65 65 64 64 65 64 64 64 63 63 63 63 62 62 61
21 17 19 21 20 15 18 30 22 19 17 20 20 28 33 41 36 32 30 29 39 44 40 36 37 41 42 43 47 48 49 49 51 51 53 53 54 55 56 57 58 59 60 61 61 62 63 64 64 66 67 67 68 69 69 69 68 68 67 67 67 67 67 66 66 65 65 65 64 64 65 65 65 65 64 64 64 64 64 64 63 63 63 62 62 62 62
19 27 25 23 15 18 35 41 40 31 19 19 25 43 43 45 47 46 43 40 41 42 40 40 41 45 48 51 49 49 53 52 52 53 54 55 57 57 59 60 60 61 61 62 62 63 63 63 65 66 67 67 68 68 68 68 68 68 67 67 67 67 66 66 66 66 65 65 65 65 65 65 65 65 65 65 65 65 64 64 63 63 63 62 62 63 62
29 25 22 14 21 32 41 39 41 45 39 39 38 39 43 47 47 47 45 44 44 46 45 46 47 48 49 48 50 52 52 55 54 55 55 57 59 60 61 61 62 62 61 62 61 62 63 64 65 66 66 67 67 67 67 67 67 67 67 66 66 67 66 66 66 65 65 64 64 64 64 65 64 63 64 64 65 66 66 65 64 64 63 63 62 62 63
24 26 19 22 33 36 37 39 42 42 38 39 35 34 38 47 49 49 47 47 46 47 46 47 47 48 47 47 48 49 50 53 55 55 55 58 60 61 62 62 62 63 62 62 62 63 63 64 65 66 66 67 67 66 65 65 65 65 66 66 66 66 66 66 65 65 65 64 64 64 64 64 63 63 63 65 65 66 65 65 65 64 63 62 63 63 63
33 28 29 30 30 30 34 41 44 45 43 44 43 40 37 45 47 49 49 47 46 48 47 46 46 47 45 45 47 49 50 52 55 55 56 57 58 59 61 61 62 63 64 64 65 63 63 63 64 65 66 66 67 66 64 64 64 64 65 65 66 66 66 66 66 66 64 64 64 64 63 62 63 64 64 65 65 66 65 65 64 63 63 63 63 63 63
32 30 28 28 28 32 39 41 43 46 48 47 46 40 35 43 48 48 49 47 48 46 47 48 48 45 45 46 49 50 51 52 53 54 56 57 59 60 59 58 59 63 64 64 65 65 64 64 64 65 66 66 65 65 64 63 63 63 64 65 65 66 66 66 66 66 65 65 64 63 63 63 63 62 62 63 64 65 65 65 64 63 63 62 62 63 63
38 32 31 29 35 35 41 42 44 44 46 47 38 30 32 43 49 48 49 47 47 45 47 47 47 46 45 46 49 49 52 56 58 59 60 63 65 65 66 64 61 64 67 67 65 64 65 65 65 66 66 65 66 65 64 63 63 63 64 64 65 66 66 66 66 66 65 65 65 64 63 63 63 63 63 63 64 64 64 63 64 63 64 62 62 61 62
36 38 33 35 37 43 46 44 44 45 49 35 28 29 38 48 49 49 48 47 48 48 46 46 45 48 49 51 51 52 53 54 56 60 63 64 65 65 65 66 67 65 65 64 64 64 65 65 65 65 64 64 64 64 63 63 63 63 63 64 65 65 65 65 65 66 66 64 62 61 62 62 62 63 64 64 64 63 63 62 62 62 62 62 61 61 61
35 35 35 34 37 42 44 45 46 48 42 35 34 45 49 51 51 51 51 50 50 49 49 49 49 50 51 54 54 53 54 56 57 58 61 63 63 64 66 65 64 63 63 63 63 63 64 64 64 64 64 64 63 63 62 62 63 63 64 64 65 65 65 65 65 65 64 63 62 61 62 62 60 60 63 64 63 64 63 62 61 62 61 60 60 61 60
40 38 35 34 32 40 45 45 48 49 41 42 47 50 51 54 51 50 50 51 51 51 51 52 53 53 52 52 52 53 53 53 54 56 58 60 63 64 64 63 64 63 62 62 63 63 63 63 64 64 63 63 63 62 62 62 63 63 63 64 64 65 65 65 64 64 64 63 63 62 62 62 62 62 63 63 63 63 62 62 61 61 61 61 60 59 58
38 37 34 35 39 44 46 47 45 48 48 48 50 48 46 50 47 45 46 48 49 50 49 49 49 51 51 52 52 51 53 54 54 55 57 59 61 63 64 63 63 62 62 62 62 62 62 63 64 64 63 62 63 62 62 63 63 63 64 64 64 64 64 64 63 63 63 64 64 63 63 63 63 63 63 63 63 62 62 61 61 60 60 59 59 58 57
43 40 43 47 49 48 46 46 47 48 49 49 50 47 46 45 46 48 45 46 47 47 47 48 48 48 51 52 53 51 53 55 56 56 57 58 60 62 63 63 63 61 61 61 61 61 62 63 63 63 63 63 63 62 62 63 63 63 64 64 64 64 64 64 63 64 64 64 64 64 64 64 63 63 63 63 62 62 62 62 60 59 59 58 58 58 58
47 47 49 50 48 51 47 47 48 45 46 47 47 46 46 47 47 47 46 46 46 46 46 45 47 48 50 51 52 53 52 54 56 57 56 58 59 61 63 62 61 61 61 61 61 61 61 61 63 63 63 62 62 62 63 64 63 63 63 64 64 63 63 64 64 64 64 64 64 64 64 64 64 63 62 61 61 60 60 59 59 58 58 58 58 57 57
40 41 48 48 48 47 51 48 49 49 50 49 49 48 48 48 48 49 49 48 48 47 47 47 48 49 50 50 52 54 55 55 56 57 57 58 59 60 61 63 63 61 61 61 61 60 60 61 61 62 62 62 62 63 63 63 63 63 63 63 64 64 63 64 64 64 64 63 63 62 61 62 62 62 61 61 59 60 60 59 58 58 58 58 58 57 57
42 45 51 50 47 47 46 48 46 46 47 51 53 52 52 51 50 49 49 49 49 50 49 50 49 50 52 53 54 54 55 56 57 57 58 58 58 59 60 61 61 60 61 61 60 60 60 60 62 63 62 62 62 63 63 63 63 63 64 63 62 63 63 63 63 63 62 64 61 57 58 58 59 60 60 60 60 60 59 58 58 58 57 58 57 57 57
49 49 49 48 48 47 46 45 45 48 50 48 47 50 50 49 48 47 46 46 47 48 49 51 50 49 51 52 54 55 56 57 57 58 58 59 59 59 60 60 61 61 61 61 60 60 60 60 61 60 60 60 61 62 62 62 63 63 63 63 63 62 62 62 62 63 62 62 59 58 57 56 56 55 57 59 59 59 53 54 56 56 57 57 58 56 56
43 44 44 44 41 43 49 49 50 48 47 47 47 47 46 46 46 48 48 49 48 47 48 49 49 49 50 51 53 54 56 57 58 59 59 59 60 60 61 61 61 62 62 61 61 60 60 59 58 56 57 58 60 60 60 60 61 62 62 61 61 61 61 62 61 61 60 59 59 59 58 57 54 51 47 42 44 53 53 50 47 45 49 56 56 55 54
44 48 47 47 47 46 49 49 49 51 47 46 43 44 45 46 48 46 45 44 45 47 49 50 49 48 49 50 52 51 54 56 58 60 60 60 61 61 60 61 60 60 61 62 61 60 58 57 56 56 56 57 57 57 58 58 58 59 59 60 60 60 60 59 59 58 58 58 58 57 57 56 54 52 49 48 40 40 44 45 43 41 44 47 50 52 55
47 46 45 44 44 42 44 47 46 46 46 45 44 45 45 47 45 44 44 45 44 45 46 48 50 48 48 49 49 49 49 51 55 59 60 61 61 61 61 59 59 60 61 61 60 59 57 56 56 56 56 56 57 56 58 58 57 58 58 59 59 58 57 56 58 59 57 57 57 56 55 55 54 52 51 50 49 43 40 40 41 40 40 41 42 44 46
42 46 42 43 44 45 46 47 47 47 50 45 44 44 45 44 44 45 44 45 46 45 45 45 47 49 48 48 49 49 49 50 54 56 59 61 62 59 59 58 59 60 60 60 58 56 55 55 55 55 55 56 57 57 58 58 58 58 58 57 55 55 55 57 59 60 59 58 58 56 55 54 53 53 52 51 51 49 47 40 39 38 39 39 40 40 41
43 44 44 44 44 45 46 43 44 46 47 47 47 48 53 54 49 47 45 46 46 47 47 46 45 46 49 47 48 48 48 48 52 53 52 55 58 59 58 58 59 59 60 59 57 56 55 55 55 54 55 55 57 58 58 58 57 57 56 55 55 55 56 57 57 59 58 58 57 55 55 54 53 53 53 53 53 51 50 50 49 45 41 38 38 39 39
45 44 41 41 41 43 44 42 45 46 46 47 45 45 45 47 51 48 47 46 46 46 47 48 49 48 48 48 52 50 49 50 49 46 48 51 53 55 58 58 58 59 59 58 57 56 57 57 57 56 55 55 57 59 59 58 58 58 57 57 56 60 61 60 56 58 58 57 56 55 55 54 55 55 54 55 54 52 51 51 51 50 49 48 42 39 44
48 48 46 42 44 45 47 47 47 47 47 48 46 43 45 48 44 42 42 42 43 44 44 46 48 46 45 46 47 46 46 46 46 47 47 48 52 56 58 58 58 59 59 58 58 59 59 58 56 56 55 57 59 60 59 59 58 58 57 56 56 58 61 61 58 58 58 57 56 56 55 55 56 57 57 56 55 54 53 53 53 51 50 48 48 42 41
48 50 50 50 51 51 50 50 49 48 44 45 48 47 45 42 42 42 43 44 45 45 44 44 46 48 48 46 47 47 47 46 47 47 47 49 55 56 58 58 58 59 59 59 59 59 58 57 57 56 56 58 58 59 59 58 58 57 57 57 56 56 58 60 58 57 58 57 56 56 56 56 57 57 56 57 56 55 54 54 54 53 49 48 48 47 46
47 48 49 48 49 50 44 43 44 45 44 46 43 43 43 43 42 43 44 44 45 44 45 46 46 45 47 46 46 46 47 47 47 47 48 50 54 57 58 58 58 58 58 58 58 58 58 57 57 57 57 57 58 59 59 59 58 58 58 58 58 58 59 59 59 58 58 57 57 57 57 56 56 56 56 57 56 55 54 54 54 52 49 48 48 47 47
46 46 45 43 44 44 42 43 44 44 44 44 44 43 43 44 43 45 46 47 48 47 47 46 47 45 45 45 45 45 47 48 48 49 50 53 55 56 58 58 57 57 57 58 58 58 58 58 58 58 59 59 58 58 59 59 58 58 58 59 60 59 59 58 58 57 58 59 58 57 56 57 57 56 56 56 56 54 54 54 54 52 50 49 50 48 48
44 43 43 44 43 42 43 44 44 44 44 44 44 43 43 44 44 46 47 48 48 48 46 46 46 46 45 46 47 48 47 48 49 50 52 54 55 55 56 58 58 60 58 58 59 59 58 58 58 58 59 60 60 60 59 58 59 58 58 61 59 59 59 58 58 58 60 60 59 58 58 56 56 57 58 58 56 55 54 53 53 52 50 49 50 49 49
42 43 43 43 44 43 43 43 43 43 44 44 44 45 46 45 47 48 48 50 49 49 47 47 47 47 47 47 47 47 47 49 49 50 51 52 54 55 55 56 57 57 58 58 59 59 58 58 58 58 58 59 59 59 59 58 58 58 58 58 59 60 60 57 58 59 60 59 58 58 57 57 56 57 56 56 56 55 54 53 53 53 52 50 50 50 49
44 43 43 44 44 43 43 43 44 45 45 45 45 46 46 46 47 48 49 52 48 48 48 48 48 48 48 48 48 48 48 49 50 51 51 52 53 54 55 56 56 56 57 57 58 57 57 57 58 59 60 60 59 58 59 58 58 58 58 59 58 58 58 58 59 60 59 58 58 59 58 58 56 56 57 57 57 56 56 54 54 54 52 52 50 50 47
46 46 46 46 46 47 46 45 45 46 46 45 45 46 46 47 48 49 52 50 48 49 49 49 49 49 49 49 48 48 47 48 50 51 52 53 53 54 55 55 56 56 56 56 57 57 58 58 59 59 60 59 59 58 58 58 58 58 58 58 59 59 59 59 59 59 59 57 57 55 55 56 57 57 58 57 56 56 56 56 55 54 53 52 50 50 48
47 46 46 46 47 48 47 47 47 47 47 46 47 47 48 48 49 49 49 49 50 50 50 51 51 51 50 50 50 49 49 49 51 53 54 53 53 54 55 55 56 56 57 58 59 59 59 61 62 61 60 59 58 58 58 58 58 58 58 58 59 59 60 59 58 57 57 56 56 56 56 57 56 57 57 56 56 57 56 56 55 54 53 52 51 49 48
48 47 47 47 47 47 47 47 48 47 47 47 48 48 49 49 50 50 51 50 50 50 51 52 52 52 51 51 51 51 51 51 53 55 54 54 54 54 55 56 57 57 57 57 58 59 61 63 62 62 60 59 60 60 60 60 57 58 57 56 58 58 57 56 56 55 55 56 56 57 57 57 56 56 56 54 55 55 56 55 55 54 52 52 51 50 48
48 48 48 47 47 47 47 48 49 48 48 48 48 50 51 51 51 50 49 49 50 50 52 52 51 52 53 53 52 52 53 54 55 55 54 54 54 55 55 55 56 56 57 57 58 60 61 62 60 59 58 59 59 60 61 61 59 56 56 57 57 57 57 56 55 55 55 56 56 55 54 54 53 54 54 53 53 53 54 55 54 53 52 52 51 50 49
48 48 48 48 48 48 48 48 48 48 49 48 48 49 51 52 52 50 49 49 49 52 51 50 51 52 53 52 53 54 55 55 56 55 55 55 55 54 54 55 55 55 55 56 58 59 60 59 59 57 58 59 59 60 60 60 59 55 55 55 56 56 56 55 55 54 54 55 54 54 54 54 53 53 53 53 52 53 54 53 52 52 50 50 49 49 48
48 48 49 49 48 48 48 48 48 48 49 49 48 49 50 51 51 50 49 49 50 52 51 51 51 52 53 52 52 54 55 55 55 55 55 55 55 55 55 55 56 57 58 60 59 59 59 59 57 56 56 57 58 59 60 59 57 55 55 55 55 55 55 55 55 54 54 54 55 56 54 54 53 53 53 52 52 52 53 53 52 51 50 49 48 48 48
49 49 49 49 49 49 48 48 48 48 48 49 49 50 51 50 51 50 50 50 50 51 51 51 51 53 53 52 53 54 54 55 55 54 54 55 54 54 53 53 55 57 58 59 59 59 59 56 57 56 55 55 55 57 55 54 50 49 51 53 54 55 55 54 55 54 54 54 55 54 53 53 53 53 53 53 52 52 52 53 52 51 49 48 47 47 47
50 49 49 49 49 49 49 48 49 48 49 49 50 50 50 50 51 51 51 51 51 51 51 51 54 55 54 53 53 53 53 53 54 54 55 55 54 53 53 53 54 57 59 60 59 58 57 55 56 56 54 54 55 54 53 52 47 47 48 49 51 53 54 55 55 54 54 54 53 53 53 53 53 52 53 53 52 52 52 52 52 51 50 49 47 47 46
51 50 50 50 50 50 50 50 49 49 49 49 49 49 50 50 50 51 51 51 52 51 52 52 52 53 53 52 51 52 52 53 53 52 52 53 54 53 53 54 53 55 59 58 55 54 53 53 54 54 55 54 55 54 52 46 45 46 47 49 51 49 50 49 50 52 53 52 52 51 52 52 52 52 52 52 52 52 51 51 51 51 50 49 48 47 47
50 50 49 50 50 51 51 50 49 49 48 49 50 50 49 49 50 50 51 51 52 52 53 52 52 52 53 53 52 52 52 52 52 52 51 52 52 52 53 53 54 57 59 57 54 52 52 53 52 54 55 55 54 53 48 44 44 46 47 49 50 50 50 48 48 47 48 49 49 49 50 52 51 51 51 51 51 51 51 51 51 51 51 50 49 48 47
49 48 50 50 50 50 49 48 48 48 49 50 49 49 50 50 50 50 50 51 52 53 54 53 52 53 52 53 53 52 52 52 53 52 51 51 51 51 53 56 58 59 58 55 54 52 52 52 54 56 56 55 53 51 44 43 43 44 46 47 47 48 47 46 46 47 48 47 46 46 47 47 48 48 48 49 49 49 49 50 50 50 50 50 49 48 47
49 48 49 53 50 49 48 48 49 49 49 49 48 48 50 50 50 51 51 51 51 51 52 52 52 53 52 53 53 53 52 53 53 52 52 52 52 52 53 57 58 59 58 56 53 51 51 54 56 57 56 56 53 48 42 46 47 46 44 44 46 47 46 45 48 47 48 46 46 45 46 45 44 44 44 43 44 46 47 49 50 50 50 49 49 48 48
48 49 48 48 48 49 50 49 50 50 48 47 46 46 49 50 51 51 51 51 51 51 51 52 52 53 53 53 53 53 53 52 52 53 54 53 55 56 57 58 59 58 58 54 53 51 52 55 57 57 55 53 52 40 42 43 43 42 43 43 45 45 45 43 44 44 45 46 47 48 47 46 43 41 45 47 47 47 47 48 49 50 50 50 49 49 48
48 49 48 48 48 49 49 48 47 47 46 45 46 48 49 49 49 50 50 50 51 50 51 51 52 52 52 53 53 52 52 52 51 52 51 52 53 53 56 57 58 59 58 56 54 54 54 56 56 55 55 53 49 39 42 41 41 43 43 44 44 44 44 44 44 43 43 44 46 46 45 44 43 41 42 41 41 41 43 46 47 49 49 49 49 48 48
47 47 48 49 49 49 48 47 48 49 46 47 48 48 49 50 50 50 50 50 50 50 51 52 51 50 50 53 54 54 54 54 52 51 51 52 53 54 54 58 58 59 56 54 54 53 55 54 54 54 54 53 42 39 39 40 44 45 45 43 44 43 44 42 42 43 41 42 43 44 43 40 39 39 40 40 41 42 44 44 45 46 47 48 48 48 48
47 48 49 48 48 48 47 46 47 46 46 49 48 48 48 50 50 47 49 50 51 54 52 50 50 49 49 49 49 51 52 53 55 54 54 54 53 53 55 55 57 58 56 53 53 52 55 55 54 53 53 52 42 40 40 41 42 45 45 47 46 44 46 45 46 45 43 45 43 43 44 43 41 41 43 42 43 44 45 44 44 45 46 46 47 47 47
47 48 48 50 50 51 49 48 48 48 48 48 48 49 51 51 50 51 51 52 52 52 51 50 49 49 48 48 49 49 51 52 54 57 57 55 54 55 56 55 55 57 56 54 53 52 51 53 52 51 52 52 45 42 42 42 43 44 47 46 47 47 47 47 46 46 45 45 44 43 43 43 44 42 42 42 44 44 45 46 45 45 45 45 45 46 46
47 47 48 49 48 48 49 48 48 49 49 49 49 50 50 50 50 50 49 53 52 51 50 50 49 48 48 48 51 50 50 51 54 54 56 57 56 54 55 56 55 56 56 54 52 51 50 51 52 52 51 50 48 45 45 46 45 43 44 47 47 47 48 48 48 46 46 47 46 44 45 44 42 42 43 43 44 44 44 44 45 45 45 45 45 46 45